Volver al catálogo

METEOR 3-5

ActivoMeteoPO
NORAD 21655·PAYLOAD·🇷🇺 Russia

Lanzado Aug 15, 1991 desde Plesetsk Cosmodrome

Loading…

Próximos Pases (próximas 24 horas)

TLE

ActualizadoSource: Space-Track

Época: Sep 13, 2026, 23:51 UTC

1 21655U 91056A   26256.99381175 -.00000145  00000-0 -40721-3 0  9993
2 21655  82.5516  76.6065 0012231 275.7122  84.2606 13.17161040686261

Sigue METEOR 3-5 en tiempo real con AllMySat

Download on the App Store